Location: Arnolds Mill
(42.3415°N, 73.5951°W)
Time: 06:08:52
(UTC+00:00)

Oscar 11 - Pass Details

Date: 17 May 2026
Orbit: 591 x 601 km, 97.8° (Epoch: 11 June)

Event Time Altitude Azimuth Distance (km) Brightness Sun altitude
Rises 07:12:35 0° 34° (NE) 2,857 12.1 -20.2°
Reaches altitude 10° 07:16:00 10° 64° (ENE) 1,946 10.5 -19.8°
Maximum altitude 07:17:51 13° 90° (E) 1,777 9.9 -19.6°
Drops below altitude 10° 07:19:41 10° 116° (ESE) 1,937 9.7 -19.4°
Enters shadow 07:22:44 - 144° (SE) 2,728 10.2 -19.1°
